COSMOS 2015

Satellite information

Favourite Embed

Satellite Type and Status

PAYLOADIN ORBIT

Key statistics

Satellite COSMOS 2015 at a glance.

Uptime

13419

Days in orbit

Revolutions

≈ 12.4

Per day

Orbit

LEO

Low Earth Orbit

Inclination

74.0

Latest

Satellite identification and parameters

Extended collection of information and parameters for COSMOS 2015.

Object identification

Identified? True

Debris? False

Object name: COSMOS 2015

International designator: 1989-025H

Object number (NORAD): 19909

Object ID (CCSDS): 19909

Country: COMMONWEALTH OF INDEPENDENT STATES (CIS)

Current information (Y/N): Y

RCS size: MEDIUM

Orbital parameters

Period: 115.75 minutes

Inclination: 74.0114 deg

SMA: 7867.562 km

Apoapsis: 1508.949 km

Periapsis: 1469.905 km

RAAN: 22.0808 deg

Eccentricy: 0.00248129

Argument of periapsis: 136.8818 deg

Mean anomaly: 335.4954 deg

Mean motion: 12.44063366 rev/day

Mean motion (dot): 0.0 rev/day2

B* drag term: 0.0001094584 1/REarth

Two-line elements (TLE)

Creation date: Dec. 19, 2025, 2:08 a.m.

Reference frame: TEME

Reference center: EARTH

Epoch: Dec. 18, 2025, 7:51 p.m. UTC

TLE line 0: 0 COSMOS 2015

TLE line 1: 1 19909U 89025H 25352.82732736 .00000000 00000-0 10946-3 0 9990

TLE line 2: 2 19909 74.0114 22.0808 0024813 136.8818 335.4954 12.44063366668356

Live tracking on map

Real-time ground track for satellite COSMOS 2015.

In-orbit conjunctions

A list of the most updated potential collisions computed for object COSMOS 2015.

Target Orbit TCA Probability of collision Miss distance Type
DELTA 1 DEB SSO 2025-07-14 00:36:56 0.0001228299 983.0 (m) DEBRIS

Associated space launch

Military communications satellites

COSMOS 2015 was lifted into orbit during the mission ‘Kosmos-3M | Strela-1M 337-344’, on board a Kosmos-3M space rocket.

The launch took place on March 24, 1989, 1:38 p.m. from 132/2.

For more information about the launch, click the button.

Launch to space Kosmos-3M | Strela-1M 337-344
Kosmos-3M | Strela-1M 337-344

Agency: N/A

Status: Launch Successful

Launch date: March 24, 1989, 1:38 p.m. UTC

Rocket: Kosmos-3M

Launch pad: 132/2

Location: Plesetsk Cosmodrome, Russian Federation

...

Latest news about this satellite

There are no fresh news available about this satellite. Check back as we update our databases every day.


Newsletter sign-up

Weekly statistics, charts and insights to help you stay on top of the space industry.